Regional Weather Roundup
Issued by NWS

Home | Current Version | Previous Version | Graphics & Text | Print | Product List | Glossary On
Versions: 1 2 3 4 5 6 7 8 9 10 11 12 13 14 15 16 17 18 19 20 21 22 23 24 25 26 27 28 29 30 31 32 33 34 35 36 37 38 39 40 41 42 43 44 45 46 47 48 49 50
000
ASUS43 KMKX 201711
RWRWI

WISCONSIN REGIONAL WEATHER ROUNDUP
NATIONAL WEATHER SERVICE MILWAUKEE/SULLIVAN WI
1200 PM CDT SUN AUG 20 2017

NOTE: "FAIR" INDICATES FEW OR NO CLOUDS BELOW 12,000 FEET WITH NO
SIGNIFICANT WEATHER AND/OR OBSTRUCTIONS TO VISIBILITY.

WIZ001-002-006>008-014>016-023>028-201800-
NORTHWEST WISCONSIN

CITY           SKY/WX    TMP DP  RH WIND       PRES   REMARKS
SUPERIOR ARPT    N/A     74  68  80 SW8       29.88R
ASHLAND        MOSUNNY   81  66  60 SW14      29.87R HX  83
HAYWARD        MOSUNNY   77  65  66 S13G20    29.92R
SIREN          CLOUDY    76  66  70 W8        29.93R
CUMBERLAND     SUNNY     75  64  69 S9        29.94S
RICE LAKE      SUNNY     75  66  72 S10       29.95S
CHETEK         MOSUNNY   76  67  73 SW8       29.94F
LADYSMITH      SUNNY     76  65  68 SW13G18   29.96F
EAU CLAIRE     SUNNY     77  65  66 SW9       29.95R
MENOMONIE      SUNNY     78  67  68 S9        29.95F HX  81
NEW RICHMOND   MOSUNNY   78  65  65 SW9       29.94S HX  80
OSCEOLA        SUNNY     79  68  68 W8        29.96R HX  81
$$

WIZ003>005-009-010-017-018-201800-
NORTH CENTRAL WISCONSIN

CITY           SKY/WX    TMP DP  RH WIND       PRES   REMARKS
MANITOWISH WTR PTSUNNY   76  67  72 SW16      29.94S
ARBOR VITAE    MOSUNNY   77  66  69 SW14      29.95S
WOODRUFF       MOSUNNY   77  66  69 SW14      29.95S
RHINELANDER    MOSUNNY   76  65  68 SW18G24   29.98F
EAGLE RIVER    MOSUNNY   75  61  61 SW9G20    29.95F
LAND O LAKES   SUNNY     76  61  60 S13G18    29.97S
PHILLIPS       SUNNY     76  67  72 SW10G18   29.94F
TOMAHAWK         N/A     76  64  66 S6        29.97F
MEDFORD        CLOUDY    73  65  76 S12       29.98S
MERRILL        CLOUDY    75  64  69 S10G17    29.98F
$$

WIZ029-030-035-036-043>047-201800-
CENTRAL WISCONSIN

CITY           SKY/WX    TMP DP  RH WIND       PRES   REMARKS
WAUSAU         CLOUDY    75  64  68 S10       29.97F
MOSINEE        CLOUDY    73  66  78 S10       30.01S
MARSHFIELD     PTSUNNY   75  64  68 S10       29.99F
STEVENS POINT  CLOUDY    76  64  66 SW13G20   30.00F
WAUPACA        PTSUNNY   80  65  61 S9        30.01F HX  82
WAUTOMA        PTSUNNY   77  66  68 S8        30.01F
WISC RAPIDS    CLOUDY    76  65  68 SW12      30.01F
CAMP DOUGLAS   CLOUDY    75  66  73 SW8       29.99F
$$

WIZ011>013-019>022-031-037>040-048>050-201800-
NORTHEAST WISCONSIN

CITY           SKY/WX    TMP DP  RH WIND       PRES   REMARKS
ANTIGO         CLOUDY    73  64  71 SW13      30.01F
SHAWANO        CLOUDY    78  64  61 SW6       30.00F HX  80
OCONTO         CLOUDY    78  65  65 SW8       29.99F HX  80
STURGEON BAY   CLOUDY    76  64  66 S14       30.01F
GREEN BAY      MOSUNNY   76  66  71 SW10      30.01F
MANITOWOC      MOSUNNY   78  62  57 S12       30.02F HX  80
APPLETON       PTSUNNY   75  59  57 SW14      30.01S
CLINTONVILLE   MOSUNNY   77  61  57 S10       30.00F
OSHKOSH        CLOUDY    76  64  66 S12       30.02F
$$

WIZ032>034-041-042-053>061-201800-
SOUTHWEST WISCONSIN

CITY           SKY/WX    TMP DP  RH WIND       PRES   REMARKS
LA CROSSE      CLOUDY    76  66  71 SE9       29.97F
SPARTA         CLOUDY    73  65  74 S3        30.00F
VIROQUA        CLOUDY    73  67  83 CALM      30.02F
BOSCOBEL       CLOUDY    76  65  68 W7        30.01F
PRAIRIE DU CHI CLOUDY    74  63  68 CALM      30.00F
PLATTEVILLE    CLOUDY    74  69  83 SW3       30.03F
$$

WIZ056-057-062-063-064-067-068-201800-
SOUTH CENTRAL WISCONSIN

CITY           SKY/WX    TMP DP  RH WIND       PRES   REMARKS
REEDSBURG      CLOUDY    76  66  71 SW9       30.01F
BARABOO/DELLS  CLOUDY    76  63  64 SW12      30.02F
LONE ROCK      CLOUDY    77  67  71 W5        30.01F
MINERAL POINT  CLOUDY    77  68  73 W8        30.04F
MADISON        CLOUDY    77  67  71 SW6       30.02F
MIDDLETON      CLOUDY    78  67  68 SW5       30.03F HX  80
WATERTOWN      CLOUDY    77  68  73 S9        30.03F
MONROE         CLOUDY    75  64  69 SW12      30.05S
JANESVILLE     PTSUNNY   79  66  65 SW8       30.03F HX  81
$$

WIZ051-052-058>065-066-070>072-201800-
SOUTHEAST WISCONSIN

CITY           SKY/WX    TMP DP  RH WIND       PRES   REMARKS
MILWAUKEE      CLOUDY    82  64  54 SW12      30.04F HX  83
WAUKESHA       SUNNY     77  64  65 SW12      30.06S
MILWAUKEE/TIMM SUNNY     79  61  53 SW7       30.05F HX  80
RACINE         CLOUDY    78  66  66 S7        30.06S HX  80
KENOSHA        CLOUDY    80  66  62 SW8       30.05S HX  82
FOND DU LAC    CLOUDY    77  63  61 SW9       30.03S
SHEBOYGAN      MOSUNNY   79  65  62 SW9       30.03F HX  81
WEST BEND      CLOUDY    77  64  65 SW8       30.04F
JUNEAU         MOSUNNY   75  65  70 S9        30.04F
$$

LSZ147-162-201800-
LAKE SUPERIOR

STATION/POSITION TIME  TEMP    WIND        PRES    WAVE
                       AIR SEA DIR/SP/G            HT/PER
                 (UTC) (F)     (DEG/KT/KT) (MB)    (FT/S)
W MID LAKE BUOY  1650   63 60  230/  8/  8 1010.4S   1/ 3
DEVILS ISLAND    1700   67     250/ 13/ 16 1010.8R
SAXON HARBOR     1640   80     220/  9/ 16 1010.5F
$$

LMZ867-665-643>646-201800-
LAKE MICHIGAN

STATION/POSITION TIME  TEMP    WIND        PRES    WAVE
                       AIR SEA DIR/SP/G            HT/PER
                 (UTC) (F)     (DEG/KT/KT) (MB)    (FT/S)
S GREEN BAY BUOY 1700   73 71  210/ 10/ 12 1015.9
N MID LAKE BUOY  1650   68 67  190/ 14/ 16 1016.4R   2/ 4
NORTHPORT PIER   1640   77     210/  6/ 10 1015.6S
KEWAUNEE LAKESHO 1642   68     180/  9/ 11 1015.8F
SHEBOYGAN LAKESH 1700   70     170/ 13/ 14 1016.5R
PORT WASHINGTON  1630   75     180/  5/  8 1017.9F
ATWATER BUOY     1609   72 71  150/ 10/ 12 1017.4S
MILWAUKEE LAKESH 1650   72     140/ 10/ 11   N/A
S MID LAKE BUOY  1550   72 71  180/ 10/ 10 1018.1R   1/ 3
KENOSHA   LAKESH 1700   73     160/  9/ 10 1016.9
$$

TC  - TEMPERATURE IN CELSIUS
VSB - VISIBILITY IN STATUTE MILES
WCI - WIND CHILL INDEX
HX  - HEAT INDEX





USA.gov is the U.S. government's official web portal to all federal, state and local government web resources and services.